• In Hungary
  • List of Countries
  • For 7 days
  • Water Temperature
  • Satellite Maps
  • Weather Map
  • News
  • Weather Widgets
  • user-avatar
    Login

    Hourly Weather Pazardzhik

    Today, 12 December, Tuesday

    Time Temperature Precipitation Wind Pressure Humidity
    00:00 +6°C° 0 mm 2 mps 745 mmHg 58%
    01:00 +6°C° 0 mm 2 mps 745 mmHg 58%
    02:00 +6°C° 0 mm 2 mps 745 mmHg 62%
    03:00 +6°C° 0 mm 2 mps 745 mmHg 63%
    04:00 +6°C° 0 mm 2 mps 745 mmHg 63%
    05:00 +7°C° 0 mm 2 mps 745 mmHg 64%
    06:00 +7°C° 0 mm 2 mps 745 mmHg 65%
    07:00 +7°C° 0 mm 2 mps 745 mmHg 66%
    08:00 +7°C° 0 mm 2 mps 746 mmHg 67%
    09:00 +9°C° 0 mm 2 mps 746 mmHg 63%
    10:00 +12°C° 0 mm 1 mps 746 mmHg 60%
    11:00 +15°C° 0 mm 1 mps 746 mmHg 56%
    12:00 +15°C° 0 mm 1 mps 745 mmHg 55%
    13:00 +16°C° 0 mm 1 mps 745 mmHg 55%
    14:00 +18°C° 0 mm 1 mps 745 mmHg 54%
    15:00 +15°C° 0 mm 1 mps 745 mmHg 60%
    16:00 +13°C° 0 mm 1 mps 745 mmHg 67%
    17:00 +11°C° 0 mm 1 mps 746 mmHg 73%
    18:00 +11°C° 0 mm 1 mps 746 mmHg 73%
    19:00 +11°C° 0 mm 1 mps 746 mmHg 73%
    20:00 +9°C° 0 mm 2 mps 746 mmHg 74%
    21:00 +9°C° 0 mm 2 mps 746 mmHg 74%
    22:00 +9°C° 0 mm 2 mps 746 mmHg 74%
    23:00 +9°C° 0 mm 2 mps 746 mmHg 74%

    Tomorrow, 13 December, Wednesday

    Time Temperature Precipitation Wind Pressure Humidity
    00:00 +9°C° 0 mm 2 mps 746 mmHg 74%
    01:00 +9°C° 0 mm 2 mps 746 mmHg 75%
    02:00 +9°C° 0 mm 2 mps 746 mmHg 75%
    03:00 +9°C° 0 mm 2 mps 746 mmHg 75%
    04:00 +9°C° 0 mm 2 mps 746 mmHg 76%
    05:00 +9°C° 0 mm 2 mps 746 mmHg 76%
    06:00 +9°C° 0 mm 2 mps 746 mmHg 76%
    07:00 +8°C° 0 mm 2 mps 746 mmHg 76%
    08:00 +8°C° 0 mm 2 mps 746 mmHg 76%
    09:00 +11°C° 0 mm 1 mps 746 mmHg 70%
    10:00 +13°C° 0 mm 1 mps 746 mmHg 65%
    11:00 +15°C° 0 mm 1 mps 746 mmHg 59%
    12:00 +16°C° 0 mm 1 mps 745 mmHg 58%
    13:00 +18°C° 0 mm 1 mps 745 mmHg 56%
    14:00 +18°C° 0 mm 1 mps 744 mmHg 55%
    15:00 +16°C° 0 mm 1 mps 744 mmHg 61%
    16:00 +14°C° 0 mm 1 mps 743 mmHg 67%
    17:00 +13°C° 0 mm 1 mps 743 mmHg 73%
    18:00 +12°C° 0 mm 1 mps 743 mmHg 72%
    19:00 +12°C° 0 mm 1 mps 743 mmHg 71%
    20:00 +12°C° 0 mm 1 mps 743 mmHg 71%
    21:00 +12°C° 0 mm 1 mps 743 mmHg 70%
    22:00 +12°C° 0 mm 1 mps 742 mmHg 69%
    23:00 +12°C° 0 mm 1 mps 742 mmHg 68%

    Day after tomorrow, 14 December, Thursday

    Time Temperature Precipitation Wind Pressure Humidity
    00:00 +12°C° 0 mm 1 mps 742 mmHg 69%
    01:00 +12°C° 0 mm 1 mps 742 mmHg 70%
    02:00 +12°C° 0 mm 1 mps 742 mmHg 71%
    03:00 +11°C° 0 mm 1 mps 742 mmHg 74%
    04:00 +10°C° 0 mm 2 mps 741 mmHg 76%
    05:00 +9°C° 0 mm 2 mps 741 mmHg 79%
    06:00 +10°C° 0.1 mm 1 mps 741 mmHg 80%
    07:00 +10°C° 0.1 mm 1 mps 741 mmHg 82%
    08:00 +10°C° 0.1 mm 1 mps 742 mmHg 83%
    09:00 +11°C° 0 mm 1 mps 742 mmHg 78%
    10:00 +12°C° 0 mm 1 mps 742 mmHg 73%
    11:00 +14°C° 0 mm 1 mps 742 mmHg 68%
    12:00 +14°C° 0 mm 1 mps 742 mmHg 65%
    13:00 +15°C° 0 mm 1 mps 741 mmHg 62%
    14:00 +15°C° 0 mm 1 mps 741 mmHg 59%
    15:00 +14°C° 0 mm 1 mps 741 mmHg 65%
    16:00 +12°C° 0 mm 1 mps 741 mmHg 70%
    17:00 +11°C° 0 mm 1 mps 741 mmHg 76%
    18:00 +11°C° 0 mm 1 mps 741 mmHg 77%
    19:00 +10°C° 0 mm 1 mps 741 mmHg 78%
    20:00 +9°C° 0 mm 1 mps 741 mmHg 80%
    21:00 +9°C° 0 mm 1 mps 741 mmHg 79%
    22:00 +9°C° 0 mm 1 mps 741 mmHg 79%
    23:00 +9°C° 0 mm 1 mps 741 mmHg 78%

    15 December, Friday

    Time Temperature Precipitation Wind Pressure Humidity
    00:00 +9°C° 0 mm 1 mps 741 mmHg 77%
    01:00 +8°C° 0 mm 1 mps 741 mmHg 76%
    02:00 +8°C° 0 mm 1 mps 741 mmHg 74%
    03:00 +8°C° 0 mm 1 mps 741 mmHg 73%
    04:00 +8°C° 0 mm 1 mps 740 mmHg 72%
    05:00 +8°C° 0 mm 1 mps 740 mmHg 71%
    06:00 +8°C° 0 mm 1 mps 740 mmHg 71%
    07:00 +8°C° 0 mm 1 mps 741 mmHg 71%
    08:00 +8°C° 0 mm 1 mps 741 mmHg 70%
    09:00 +10°C° 0 mm 1 mps 741 mmHg 65%
    10:00 +12°C° 0 mm 1 mps 740 mmHg 60%
    11:00 +14°C° 0 mm 1 mps 740 mmHg 55%
    12:00 +15°C° 0 mm 1 mps 740 mmHg 54%
    13:00 +15°C° 0 mm 2 mps 739 mmHg 53%
    14:00 +16°C° 0 mm 2 mps 739 mmHg 52%
    15:00 +14°C° 0 mm 2 mps 738 mmHg 58%
    16:00 +13°C° 0 mm 2 mps 738 mmHg 64%
    17:00 +10°C° 0 mm 2 mps 738 mmHg 70%
    18:00 +10°C° 0 mm 2 mps 738 mmHg 70%
    19:00 +10°C° 0 mm 2 mps 738 mmHg 70%
    20:00 +9°C° 0 mm 2 mps 738 mmHg 70%
    21:00 +9°C° 0 mm 2 mps 738 mmHg 70%
    22:00 +9°C° 0 mm 2 mps 738 mmHg 71%
    23:00 +9°C° 0 mm 2 mps 738 mmHg 71%

    16 December, Saturday

    Time Temperature Precipitation Wind Pressure Humidity
    00:00 +9°C° 0 mm 2 mps 737 mmHg 71%
    01:00 +9°C° 0 mm 2 mps 737 mmHg 72%
    02:00 +9°C° 0 mm 2 mps 737 mmHg 72%
    03:00 +9°C° 0 mm 2 mps 737 mmHg 73%
    04:00 +9°C° 0 mm 2 mps 736 mmHg 74%
    05:00 +9°C° 0 mm 2 mps 736 mmHg 75%
    06:00 +9°C° 0 mm 2 mps 736 mmHg 76%
    07:00 +9°C° 0 mm 2 mps 737 mmHg 77%
    08:00 +9°C° 0 mm 2 mps 737 mmHg 77%
    09:00 +12°C° 0 mm 2 mps 737 mmHg 73%
    10:00 +12°C° 0 mm 3 mps 737 mmHg 69%
    11:00 +14°C° 0 mm 3 mps 737 mmHg 64%
    12:00 +15°C° 0 mm 2 mps 737 mmHg 64%
    13:00 +15°C° 0 mm 2 mps 737 mmHg 63%
    14:00 +16°C° 0 mm 2 mps 737 mmHg 63%
    15:00 +15°C° 0 mm 2 mps 737 mmHg 68%
    16:00 +14°C° 0 mm 2 mps 737 mmHg 74%
    17:00 +13°C° 0 mm 2 mps 737 mmHg 79%
    18:00 +12°C° 0.5 mm 2 mps 738 mmHg 81%
    19:00 +12°C° 0.5 mm 2 mps 738 mmHg 83%
    20:00 +12°C° 0.5 mm 2 mps 738 mmHg 84%
    21:00 +10°C° 0.8 mm 2 mps 739 mmHg 85%
    22:00 +10°C° 0.8 mm 2 mps 739 mmHg 86%
    23:00 +10°C° 0.8 mm 2 mps 739 mmHg 87%

    17 December, Sunday

    Time Temperature Precipitation Wind Pressure Humidity
    00:00 +9°C° 1.2 mm 2 mps 739 mmHg 88%
    01:00 +9°C° 1.2 mm 2 mps 740 mmHg 88%
    02:00 +8°C° 1.2 mm 2 mps 740 mmHg 88%
    03:00 +8°C° 0.9 mm 2 mps 740 mmHg 88%
    04:00 +8°C° 0.9 mm 2 mps 741 mmHg 88%
    05:00 +8°C° 0.9 mm 1 mps 741 mmHg 89%
    06:00 +8°C° 0.4 mm 1 mps 741 mmHg 88%
    07:00 +8°C° 0.4 mm 1 mps 742 mmHg 88%
    08:00 +8°C° 0.4 mm 1 mps 742 mmHg 87%
    09:00 +8°C° 0.2 mm 1 mps 743 mmHg 84%
    10:00 +8°C° 0.2 mm 1 mps 743 mmHg 81%
    11:00 +9°C° 0.2 mm 1 mps 743 mmHg 78%
    12:00 +9°C° 0.4 mm 1 mps 743 mmHg 78%
    13:00 +9°C° 0.4 mm 1 mps 743 mmHg 78%
    14:00 +9°C° 0.4 mm 1 mps 742 mmHg 78%
    15:00 +8°C° 0.7 mm 1 mps 743 mmHg 81%
    16:00 +8°C° 0.7 mm 1 mps 743 mmHg 84%
    17:00 +7°C° 0.7 mm 1 mps 743 mmHg 87%
    18:00 +7°C° 0.6 mm 1 mps 743 mmHg 88%
    19:00 +7°C° 0.6 mm 1 mps 743 mmHg 88%
    20:00 +7°C° 0.6 mm 1 mps 744 mmHg 89%
    21:00 +7°C° 0.3 mm 1 mps 744 mmHg 89%
    22:00 +6°C° 0.3 mm 1 mps 744 mmHg 89%
    23:00 +6°C° 0.3 mm 1 mps 745 mmHg 89%
    Show more